Location: B?lite?ti
(46.2833°N, 22.7333°E)
Time: 16:00:12
(UTC+00:00)

USA 229 - Pass Details

Date: 24 January 2021
Orbit: 964 x 1248 km, 63.4° (Epoch: 26 February)

Event Time Altitude Azimuth Distance (km) Brightness Sun altitude
Rises 16:43:09 0° 320° (NW) 3,929 7.0 -13.9°
Reaches altitude 10° 16:45:50 10° 325° (NW) 3,010 6.3 -14.4°
Maximum altitude 16:52:57 57° 44° (NE) 1,368 4.0 -15.6°
Enters shadow 16:59:56 12° 121° (ESE) 2,993 5.6 -16.8°
